Regional Weather Roundup
Issued by NWS

Home | Current Version | Previous Version | Text Only | Print | Product List | Glossary Off
Versions: 1 2 3 4 5 6 7 8 9 10 11 12 13 14 15 16 17 18 19 20 21 22 23 24 25 26 27 28 29 30 31 32 33 34 35 36 37 38 39 40 41 42 43 44 45 46 47 48 49 50

000
ASUS43 KLSX 211457
RWRMO

WEATHER SUMMARY FOR MISSOURI
NATIONAL WEATHER SERVICE SPRINGFIELD MO
1000 AM CDT SAT APR 21 2018

NOTE: "FAIR" INDICATES FEW OR NO CLOUDS BELOW 12,000 FEET WITH NO
       SIGNIFICANT WEATHER AND/OR OBSTRUCTIONS TO VISIBILITY.
       CURRENT SKY AND/OR WEATHER CONDITIONS ARE NOT AVAILABLE FOR
       CHILLICOTHE AND FARMINGTON.

MOZ001>031-035>038-043-044-053-054-211600-
...NORTHERN AND WESTERN MISSOURI...

CITY           SKY/WX    TMP DP  RH WIND       PRES   REMARKS
KANSAS CTY INT CLOUDY    50  28  42 E8        30.23F
LEE`S SUMMIT   CLOUDY    50  30  46 E9        30.22F
ST JOSEPH      CLOUDY    51  34  52 E6        30.25F
CHILLICOTHE      N/A     53  27  36 VRB6      30.28F

$$
MOZ066>068-077>081-088>096-101>105-211600-
...SOUTHWEST MISSOURI...

CITY           SKY/WX    TMP DP  RH WIND       PRES   REMARKS
SPRINGFIELD    MOSUNNY   55  33  43 S8        30.19S
JOPLIN         CLOUDY    56  38  50 SE9       30.19R
BRANSON        CLOUDY    48  32  53 SE8G16    30.20S

$$
MOZ032>034-039>042-045>050-055>058-069>072-211600-
...CENTRAL MISSOURI...

CITY           SKY/WX    TMP DP  RH WIND       PRES   REMARKS
COLUMBIA       NOT AVBL
JEFFERSON CITY CLOUDY    55  28  35 E13       30.27F
ROLLA          CLOUDY    53  30  41 E15       30.27F
SEDALIA        CLOUDY    54  31  41 E14       30.25F
WARRENSBURG    CLOUDY    50  30  46 E7        30.23F

$$
MOZ051-052-059>065-211600-
...EAST CENTRAL MISSOURI...

CITY           SKY/WX    TMP DP  RH WIND       PRES   REMARKS
ST LOUIS INTL  CLOUDY    56  30  37 SE10      30.35F

$$
MOZ072>076-082>087-097>100-106>115-211600-
...SOUTH CENTRAL AND SOUTHEAST MISSOURI...

CITY           SKY/WX    TMP DP  RH WIND       PRES   REMARKS
CAPE GIRARDEAU FAIR      59  36  42 E8        30.30S
POPLAR BLUFF   FAIR      58  36  43 E8        30.28F
WEST PLAINS    MOSUNNY   57  31  37 SE12      30.23F

$$




USA.gov is the U.S. government's official web portal to all federal, state and local government web resources and services.